Location: L�gaud
(45.7115°N, 1.7775°E)
Time: 08:05:54
(UTC+00:00)

Cosmos 2341 Rocket - Pass Details

Date: 03 March 2021
Orbit: 968 x 1005 km, 82.9° (Epoch: 11 April)

Event Time Altitude Azimuth Distance (km) Brightness Sun altitude
Rises 18:28:58 0° 160° (SSE) 3,699 6.8 -8.9°
Reaches altitude 10° 18:31:40 10° 153° (SSE) 2,749 6.1 -9.4°
Maximum altitude 18:37:22 37° 88° (E) 1,479 4.5 -10.4°
Drops below altitude 10° 18:43:03 10° 23° (NNE) 2,742 6.2 -11.3°
Sets 18:45:43 0° 16° (NNE) 3,689 6.9 -11.8°
